Regional Weather Roundup
Issued by NWS Goodland, KS

Home | Current Version | Previous Version | Text Only | Print | Product List | Glossary Off
Versions: 1 2 3 4 5 6 7 8 9 10 11 12 13 14 15 16 17 18 19 20 21 22 23 24 25 26 27 28 29 30 31 32 33 34 35 36 37 38 39 40 41 42 43 44 45 46 47 48 49 50

000
ASUS43 KGLD 300408
RWRGLD

GOODLAND FORECAST AREA HOURLY WEATHER ROUNDUP
NATIONAL WEATHER SERVICE GOODLAND KS
1000 PM MDT WED OCT 29 2014

...OFFICIAL OBSERVATIONS...

CITY           SKY/WX    TMP DP  RH WIND       PRES   REMARKS
GOODLAND KS    CLEAR     53  23  31 W12       30.11R
HILL CITY KS   PTCLDY    50  34  54 SW7       30.00S
IMPERIAL NEB   CLEAR     50  23  34 NW13      30.07R
MCCOOK NEB     MOCLDY    52  30  43 SW9       30.01R
AKRON CO       CLEAR     53  24  32 N15       30.14R
BURLINGTON CO  CLEAR     48  22  35 NW8       30.14R
LIMON CO       CLEAR     41  18  39 NW3       30.20R
$$

...UNOFFICIAL OBSERVATIONS...

CITY           SKY/WX    TMP DP  RH WIND       PRES   REMARKS
COLBY KS       MOCLDY    55  32  41 W16       30.06R
NORTON KS      CLEAR     54  30  40 SW7       29.98S
SHARON SPRINGS   N/A     44  29  57 NW9         N/A
TRENTON NEB      N/A     55  32  41 NW12        N/A
$$



USA.gov is the U.S. government's official web portal to all federal, state and local government web resources and services.